User: anonymous   Login
Location: Lake Almanor
(40.2485°N, 121.1442°W)
Time: 05:55:47
(UTC-07:00)
Language:

STARLINK-1144 - Orbit

View from above orbital plane
View from above orbital plane
View from above satellite
View from above satellite

Ground track
Ground track

The orbit data is extracted from the following two-line orbital elements,

1 44933C 20001V   20099.19783617  .00006306  00000-0  43169-3 0   990
2 44933  53.0009 329.9303 0002251  77.0167 313.1630 15.05590057    14
Epoch (UTC): 08 April 2020 04:44:53
Eccentricity: 0.0002251
inclination: 53.0009°
perigee height: 548 km
apogee height: 551 km
right ascension of ascending node: 329.9303°
argument of perigee: 77.0167°
revolutions per day: 15.05590057
mean anomaly at epoch: 313.1630°
orbit number at epoch: 1

The dashed part of the orbit path shows where the satellite is in the earth's shadow,  

DLR